CZ-6A DEB, 60783

Orbit data source: Space-Track

CZ-6A DEB, 60783 is space debris in LEO originally from a launch on Tue, 06 Aug 2024 UTC launched from the Taiyaun Space Center, China (TSC). Debris objects in space refer to the collection of defunct objects orbiting the Earth. Examples of debris include non-operational satellites, rocket bodies, and fragments generated from explosions, collisions, or faulty payload assembly.

Loading next visibility...
Identifier
60783, 2024-140FJ
Orbit
LEO
Country
Flag of CNCN / PRC
Related business
Manufacturer
SAST
Mission
Spacecraft
Bus & Motor
Unknown
Mass
Unknown
Launch date (UTC)
2024-08-06 (2 years ago)
Launch vehicle
Unknown
Launch site
Taiyaun Space Center, China (TSC)
Object type
Payload
Rocket body
Debris
Shape & HBR
Unknown shape, 0.2 m
Radar Cross Section
Medium (>0.1 m² and <1 m²)

Expand to show TLE details & history
Last TLE update: 13 hours ago

TLE from 13 hours ago
0 CZ-6A DEB
1 60783U 24140FJ  26171.30748531  .00000533  00000-0  10353-3 0  9999
2 60783  89.0560 274.2120 0125779 238.2545 120.6360 14.56740397 98520
Epoch: 2026-06-20T07:22Z
TLE epoch observation values (Epoch: 2026-06-20T07:22:46.730Z)
Latitude
-0.00004°
Longitude
-105.00669°
Altitude
753.047 km
Speed
7.454 km/s
True Right ascension
18h 16m 50s
True Declination
0° 00' 00"
Sunlit
Object was in full shadow at epoch
Visualization orbit readout
Latitude
Unknown
Longitude
Unknown
Altitude
Unknown
Speed
Unknown
Apparent Right ascension
Unknown
Apparent Declination
Unknown
Sunlit
N/A
Visualization observer readout
Local Sidereal Time
07:16:25
Azimuth
Unknown
Elevation
Unknown
Doppler factor
Unknown
Orbital elements
Apogee altitude
789.652 km
Perigee altitude
611.58 km
Semi-major axis
7,078.753 km
Eccentricity
0.01258
Inclination
89.056°
RAAN
274.212°
Arg. of periapsis
238.2545°
True anomaly
121.86619°
Mean anomaly
120.636°
Eccentric anomaly
121.25209°
Mean motion
3.64425 °/min
Orbital period
98.79 mins
BSTAR
0.00010353
Loading maneuver chart data...
Computing Atmospheric mass density...
Loading historical data...
Loading historical data...
Loading historical data...
Loading historical data...
Loading historical data...
Loading historical data...
Loading historical data...

Documentation

Showing up to 5 results
|